Observations for Trim Market St
| Time | AQI | Temp °C | Hum % | Pres Pa | CO μg/m³ | H₂S μg/m³ | NO μg/m³ | NO₂ μg/m³ | O₃ μg/m³ | SO₂ μg/m³ | PM1 μg/m³ | PM2.5 μg/m³ | PM10 μg/m³ |
|---|---|---|---|---|---|---|---|---|---|---|---|---|---|
| Wednesday 26 August 2026 | |||||||||||||
| 06:19 | 2 | 16.9 | 85 | 2,147,483,647 | 0.26 | 0 | 1.62 | 16.35 | 38.75 | 0 | 5.7 | 6.51 | 12.36 |
| 06:18 | 2 | 16.9 | 85 | 2,147,483,647 | 0.25 | 0 | 1.64 | 14.54 | 32.61 | 0 | 5.7 | 6.27 | 9.68 |
| 06:17 | 2 | 16.9 | 85 | 2,147,483,647 | 0.25 | 0 | 1.65 | 15.43 | 39.31 | 0 | 4.99 | 6.98 | 10.75 |
| 06:14 | 2 | 16.9 | 85 | 2,147,483,647 | 0.26 | 0 | 1.34 | 16.04 | 41.09 | 0 | 6.41 | 7.9 | 12.36 |
| 06:13 | 2 | 16.8 | 85 | 2,147,483,647 | 0.25 | 0 | 1.32 | 16.84 | 39.13 | 0 | 6.41 | 7.44 | 12.89 |
| 06:12 | 2 | 16.9 | 85 | 2,147,483,647 | 0.26 | 0 | 1.19 | 16.06 | 37.4 | 0 | 4.99 | 6.51 | 11.81 |
| 06:10 | 2 | 16.8 | 85 | 2,147,483,647 | 0.26 | 0 | 1.3 | 14.09 | 43.49 | 0 | 6.41 | 7.9 | 13.43 |
| 06:07 | 2 | 16.8 | 85 | 2,147,483,647 | 0.27 | 0 | 1.44 | 18.51 | 37.78 | 0 | 6.41 | 7.9 | 13.43 |
| 06:06 | 2 | 16.9 | 85 | 2,147,483,647 | 0.26 | 0 | 1.39 | 16.7 | 35.25 | 0 | 5.7 | 6.04 | 10.74 |
| 06:03 | 2 | 16.8 | 85 | 2,147,483,647 | 0.27 | 0 | 1.47 | 17.85 | 32.24 | 0 | 5.7 | 6.51 | 11.28 |
| 06:02 | 2 | 16.8 | 85 | 2,147,483,647 | 0.26 | 0 | 1.45 | 15.92 | 38.27 | 0 | 4.99 | 5.58 | 10.21 |
| 05:52 | 2 | 16.8 | 86 | 2,147,483,647 | 0.26 | 0 | 1.08 | 16.59 | 38.21 | 0 | 6.41 | 7.43 | 13.41 |
| 05:51 | 2 | 16.8 | 86 | 2,147,483,647 | 0.27 | 0 | 1.08 | 15.67 | 41.04 | 0 | 6.41 | 7.43 | 11.28 |
| 05:50 | 2 | 16.8 | 86 | 2,147,483,647 | 0.27 | 0 | 1.04 | 14.84 | 39.21 | 0 | 5.7 | 6.5 | 11.28 |
| 05:49 | 2 | 16.8 | 86 | 2,147,483,647 | 0.27 | 0 | 1.2 | 15.99 | 35.59 | 0 | 4.99 | 5.49 | 8.6 |
| 05:48 | 2 | 16.8 | 86 | 2,147,483,647 | 0.27 | 0 | 1.21 | 15.69 | 40.06 | 0 | 4.99 | 6.03 | 10.2 |
| 05:47 | 2 | 16.8 | 86 | 2,147,483,647 | 0.27 | 0 | 1.47 | 18.61 | 39.43 | 0 | 7.13 | 7.84 | 12.87 |
| 05:46 | 2 | 16.8 | 86 | 2,147,483,647 | 0.27 | 0 | 1.47 | 14.6 | 39.04 | 0 | 7.13 | 7.42 | 12.87 |
| 05:45 | 2 | 16.8 | 86 | 2,147,483,647 | 0.27 | 0 | 1.43 | 19.94 | 34.94 | 0 | 7.13 | 8.81 | 12.87 |
| 05:44 | 2 | 16.8 | 86 | 2,147,483,647 | 0.28 | 0 | 1.4 | 15.43 | 38.95 | 0 | 6.41 | 7.42 | 12.87 |